Location: Northam
(31.6525°S, 116.6655°E)
Time: 21:36:15
(UTC+08:00)

Tiros 1 - All Passes

Search period start: 22 June 2021 00:00
Search period end: 02 July 2021 00:00
Orbit: 630 x 664 km, 48.4° (Epoch: 21 June)

Date Brightness Start Highest point End Pass type
(mag) Time Alt. Az. Time Alt. Az. Time Alt. Az.
22 Jun - 01:29:11 10° S 01:30:55 12° S 01:32:39 10° SSE night (unlit)
22 Jun - 03:10:08 10° SSW 03:14:22 30° SSE 03:18:31 10° E visible
22 Jun - 04:52:09 10° WSW 04:56:39 45° NW 05:01:04 10° NNE visible
22 Jun - 19:01:58 10° N 19:05:09 18° NE 19:08:22 10° E visible
22 Jun - 20:42:09 10° WNW 20:46:58 67° SW 20:51:47 10° SE visible
22 Jun - 22:26:38 10° WSW 22:29:53 17° SSW 22:33:06 10° SSE night (unlit)
23 Jun - 00:13:15 10° S 00:13:44 10° S 00:14:12 10° S night (unlit)
23 Jun - 01:54:29 10° SSW 01:57:37 17° SSE 02:00:42 10° ESE night (unlit)
23 Jun - 03:35:48 10° SW 03:40:32 65° SE 03:45:10 10° ENE visible
23 Jun - 05:19:14 10° W 05:22:19 17° NW 05:25:20 10° N visible
23 Jun - 19:26:14 10° NNW 19:30:49 45° NE 19:35:27 10° ESE visible
23 Jun - 21:08:48 10° W 21:13:08 32° SSW 21:17:28 10° SSE visible
23 Jun - 22:54:39 10° SW 22:56:33 12° SSW 22:58:27 10° SSE night (unlit)
24 Jun - 00:38:58 10° S 00:40:35 11° S 00:42:11 10° SSE night (unlit)
24 Jun - 02:19:56 10° SSW 02:24:04 29° SSE 02:28:10 10° E night (unlit)
24 Jun - 04:01:50 10° WSW 04:06:26 50° NW 04:10:55 10° NNE visible
24 Jun - 18:12:03 10° NNE 18:14:56 16° NE 18:17:51 10° E visible
24 Jun - 19:51:52 10° NW 19:56:42 74° SW 20:01:34 10° SE visible
24 Jun - 21:36:10 10° WSW 21:39:33 18° SSW 21:42:56 10° SSE night (unlit)
24 Jun - 23:22:45 10° S 23:23:23 10° S 23:24:00 10° S night (unlit)
25 Jun - 01:04:17 10° SSW 01:07:18 16° SSE 01:10:16 10° ESE night (unlit)
25 Jun - 02:45:33 10° SW 02:50:16 60° SE 02:54:54 10° ENE night (unlit)
25 Jun - 04:28:45 10° W 04:32:06 19° NW 04:35:25 10° N visible
25 Jun - 18:36:05 10° NNW 18:40:35 41° NE 18:45:08 10° ESE visible
25 Jun - 20:18:25 10° W 20:22:50 34° SSW 20:27:15 10° SE visible
25 Jun - 22:04:08 10° SW 22:06:12 12° SSW 22:08:17 10° SSE night (unlit)
25 Jun - 23:48:44 10° S 23:50:14 11° S 23:51:43 10° SSE night (unlit)
26 Jun - 01:29:43 10° SSW 01:33:47 27° SSE 01:37:48 10° E night (unlit)
26 Jun - 03:11:33 10° WSW 03:16:12 56° NW 03:20:46 10° NNE night (unlit)
26 Jun - 17:22:12 10° NNE 17:24:44 14° NE 17:27:16 10° E daylight
26 Jun - 19:01:36 10° NW 19:06:26 81° SW 19:11:19 10° SE visible
26 Jun - 20:45:43 10° WSW 20:49:14 19° SSW 20:52:44 10° SSE visible
26 Jun - 22:32:15 10° SSW 22:33:02 10° S 22:33:48 10° S night (unlit)
27 Jun - 00:14:05 10° SSW 00:16:58 16° SSE 00:19:50 10° SE night (unlit)
27 Jun - 01:55:19 10° SW 02:00:01 54° SE 02:04:37 10° ENE night (unlit)
27 Jun - 03:38:18 10° W 03:41:54 22° NW 03:45:26 10° N night (unlit)
27 Jun - 17:45:56 10° NNW 17:50:22 37° NE 17:54:48 10° ESE visible
27 Jun - 19:28:03 10° W 19:32:32 37° SSW 19:37:03 10° SE visible
27 Jun - 21:13:37 10° SW 21:15:52 13° SSW 21:18:06 10° SSE visible
27 Jun - 22:58:30 10° S 22:59:53 11° S 23:01:16 10° SSE night (unlit)
28 Jun - 00:39:30 10° SSW 00:43:29 25° SSE 00:47:26 10° E night (unlit)
28 Jun - 02:21:16 10° SW 02:25:58 63° NW 02:30:35 10° NE night (unlit)
28 Jun - 16:32:27 10° NNE 16:34:31 13° NE 16:36:35 10° E daylight
28 Jun - 18:11:20 10° NW 18:16:10 88° SW 18:21:03 10° SE visible
28 Jun - 19:55:16 10° WSW 19:58:54 21° SSW 20:02:33 10° SSE visible
28 Jun - 21:41:44 10° SSW 21:42:40 10° S 21:43:37 10° S night (unlit)
28 Jun - 23:23:53 10° SSW 23:26:38 15° SSE 23:29:23 10° SE night (unlit)
29 Jun - 01:05:05 10° SW 01:09:45 50° SE 01:14:20 10° ENE night (unlit)
29 Jun - 02:47:54 10° WSW 02:51:41 24° NW 02:55:26 10° N night (unlit)
29 Jun - 16:55:49 10° NNW 17:00:07 33° NE 17:04:28 10° ESE daylight
29 Jun - 18:37:42 10° WNW 18:42:15 40° SSW 18:46:49 10° SE visible
29 Jun - 20:23:07 10° SW 20:25:31 13° SSW 20:27:56 10° SSE visible
29 Jun - 22:08:15 10° S 22:09:32 11° S 22:10:49 10° SSE night (unlit)
29 Jun - 23:49:17 10° SSW 23:53:11 24° SSE 23:57:02 10° E night (unlit)
30 Jun - 01:30:58 10° SW 01:35:44 70° NW 01:40:24 10° NE night (unlit)
30 Jun - 15:42:54 10° NE 15:44:19 11° NE 15:45:42 10° ENE daylight
30 Jun - 17:21:05 10° NW 17:25:55 84° NE 17:30:48 10° SE daylight
30 Jun - 19:04:50 10° WSW 19:08:35 22° SSW 19:12:21 10° SSE visible
30 Jun - 20:51:13 10° SSW 20:52:19 11° S 20:53:25 10° S visible
30 Jun - 22:33:40 10° SSW 22:36:18 14° SSE 22:38:56 10° SE night (unlit)
01 Jul - 00:14:50 10° SW 00:19:28 46° SE 00:24:02 10° ENE night (unlit)
01 Jul - 01:57:29 10° WSW 02:01:29 27° NW 02:05:24 10° N night (unlit)
01 Jul - 16:05:43 10° NNW 16:09:53 30° NE 16:14:06 10° ESE daylight
01 Jul - 17:47:21 10° WNW 17:51:57 43° SW 17:56:36 10° SE visible
01 Jul - 19:32:37 10° SW 19:35:11 14° SSW 19:37:45 10° SSE visible
01 Jul - 21:18:00 10° S 21:19:11 11° S 21:20:22 10° SSE night (unlit)
01 Jul - 22:59:04 10° SSW 23:02:53 23° SSE 23:06:39 10° ESE night (unlit)
